Change the Weather History Date:

Thursday, May 2, 2013

  Actual Average Record
Temperature  
Mean Temperature 40 °F -  
Max Temperature 44 °F 48 °F 72 °F (2014)
Min Temperature 35 °F 36 °F 30 °F (1951)
Degree Days  
Heating Degree Days 26    
Moisture  
Dew Point 37 °F    
Average Humidity 87    
Maximum Humidity 100    
Minimum Humidity 79    
Precipitation  
Precipitation 0.43 in - - ()
Sea Level Pressure  
Sea Level Pressure 29.82 in    
Wind  
Wind Speed 5 mph (South)    
Max Wind Speed 17 mph    
Max Gust Speed 21 mph    
Visibility 9 miles    
Events Rain    
Averages and records for this station are not official NWS values.
T = Trace of Precipitation, MM = Missing Value Source: NWS Daily Summary

Daily Weather History Graph

Daily Weather History Graph

Search for Another Location

Airport or City:

Trip Planner

Search our weather history database for the weather conditions in past years. The results will help you decide how hot, cold, wet, or windy it might be!

Date:

Astronomy

May. 02, 2013 Rise Set
Actual Time 5:50 AM AKDT 10:00 PM AKDT
Civil Twilight 4:56 AM AKDT 10:55 PM AKDT
Nautical Twilight 3:29 AM AKDT 12:25 AM AKDT
Astronomical Twilight Sun does not rise Sun does not rise
Moon 3:36 AM AKDT (5/2) 1:13 PM AKDT (5/2)
Length of Visible Light 17h 58m
Length of Day
16h 09m
Last Quarter, 46% of the Moon is Illuminated
May 2
Last Quarter
May 9
New
May 17
First Quarter
May 24
Full
May 31
Last Quarter

Hourly Weather History & Observations

Time (AKDT) Temp. Windchill Dew Point Humidity Pressure Visibility Wind Dir Wind Speed Gust Speed Precip Events Conditions
12:53 AM 37.0 °F - 33.1 °F 86% 29.66 in 10.0 mi Calm Calm - N/A   Overcast
1:53 AM 37.0 °F 34.5 °F 32.0 °F 82% 29.69 in 10.0 mi NNW 3.5 mph - N/A   Overcast
2:53 AM 37.0 °F - 33.1 °F 86% 29.71 in 9.0 mi Calm Calm - 0.00 in Rain Light Rain
3:53 AM 36.0 °F 33.3 °F 34.0 °F 93% 29.72 in 10.0 mi NNW 3.5 mph - 0.01 in   Overcast
4:49 AM 35.6 °F - 35.6 °F 100% 29.73 in 10.0 mi Calm Calm - 0.02 in Rain Light Rain
4:53 AM 36.0 °F - 35.1 °F 97% 29.73 in 10.0 mi Calm Calm - 0.02 in Rain Light Rain
5:15 AM 35.6 °F - 35.6 °F 100% 29.73 in 10.0 mi Calm Calm - 0.01 in Rain Light Rain
5:23 AM 37.4 °F - 35.6 °F 93% 29.73 in 10.0 mi Calm Calm - 0.01 in Rain Light Rain
5:53 AM 37.0 °F - 35.1 °F 93% 29.73 in 10.0 mi Calm Calm - 0.03 in Rain Light Rain
6:53 AM 36.0 °F - 35.1 °F 97% 29.74 in 5.0 mi Calm Calm - 0.03 in Rain Light Rain
7:10 AM 37.4 °F - 35.6 °F 93% 29.74 in 10.0 mi Calm Calm - 0.00 in   Overcast
7:33 AM 37.4 °F - 35.6 °F 93% 29.75 in 9.0 mi Calm Calm - 0.00 in   Overcast
7:50 AM 37.4 °F - 37.4 °F 100% 29.75 in 6.0 mi Calm Calm - 0.01 in Rain Light Rain
7:53 AM 37.9 °F - 37.0 °F 97% 29.76 in 6.0 mi Calm Calm - 0.01 in Rain Light Rain
8:53 AM 39.9 °F 35.8 °F 36.0 °F 86% 29.77 in 10.0 mi South 5.8 mph - 0.00 in Rain Light Rain
9:11 AM 39.2 °F 33.6 °F 35.6 °F 87% 29.77 in 10.0 mi South 8.1 mph - 0.02 in Rain Light Rain
9:53 AM 41.0 °F 35.8 °F 36.0 °F 82% 29.79 in 10.0 mi South 8.1 mph - 0.02 in Rain Light Rain
10:53 AM 41.0 °F 34.3 °F 36.0 °F 82% 29.81 in 10.0 mi SSE 11.5 mph - 0.00 in   Overcast
11:53 AM 42.1 °F 36.6 °F 37.0 °F 82% 29.83 in 10.0 mi SSE 9.2 mph - 0.00 in Rain Light Rain
12:18 PM 42.8 °F 38.0 °F 37.4 °F 81% 29.83 in 10.0 mi SSE 8.1 mph - 0.00 in Rain Light Rain
12:33 PM 42.8 °F 37.5 °F 37.4 °F 81% 29.83 in 10.0 mi SSE 9.2 mph - 0.00 in Rain Light Rain
12:53 PM 42.1 °F 36.6 °F 37.0 °F 82% 29.84 in 10.0 mi SSE 9.2 mph - 0.00 in Rain Light Rain
1:43 PM 42.8 °F 37.5 °F 37.4 °F 81% 29.85 in 10.0 mi SE 9.2 mph - 0.00 in Rain Light Rain
1:53 PM 42.1 °F 36.1 °F 37.9 °F 85% 29.86 in 10.0 mi SSE 10.4 mph - 0.00 in Rain Light Rain
2:53 PM 43.0 °F 35.7 °F 39.0 °F 86% 29.87 in 10.0 mi SSW 15.0 mph - 0.01 in Rain Light Rain
3:53 PM 44.1 °F 36.8 °F 39.9 °F 85% 29.88 in 10.0 mi SSW 16.1 mph - 0.00 in Rain Light Rain
4:53 PM 43.0 °F 35.4 °F 39.0 °F 86% 29.90 in 10.0 mi South 16.1 mph - 0.02 in Rain Light Rain
5:23 PM 42.8 °F 35.1 °F 39.2 °F 87% 29.90 in 8.0 mi SSW 16.1 mph - 0.03 in Rain Light Rain
5:53 PM 42.1 °F 34.5 °F 39.0 °F 89% 29.91 in 9.0 mi SSW 15.0 mph - 0.06 in Rain Light Rain
6:13 PM 42.8 °F 36.2 °F 37.4 °F 81% 29.90 in 10.0 mi South 12.7 mph - 0.01 in Rain Light Rain
6:21 PM 42.8 °F 35.8 °F 37.4 °F 81% 29.90 in 9.0 mi SSW 13.8 mph - 0.01 in Rain Light Rain
6:53 PM 42.1 °F 35.7 °F 37.9 °F 85% 29.90 in 9.0 mi SSW 11.5 mph - 0.03 in Rain Light Rain
7:02 PM 42.8 °F 36.2 °F 37.4 °F 81% 29.90 in 10.0 mi SSW 12.7 mph - 0.01 in Rain Light Rain
7:53 PM 42.1 °F 35.2 °F 37.0 °F 82% 29.91 in 10.0 mi SSW 12.7 mph - 0.06 in Rain Light Rain
8:28 PM 41.0 °F 32.8 °F 37.4 °F 87% 29.90 in 8.0 mi SSW 16.1 mph - 0.03 in Rain Light Rain
8:53 PM 41.0 °F 34.3 °F 37.9 °F 89% 29.90 in 9.0 mi SSW 11.5 mph - 0.06 in Rain Light Rain
9:49 PM 41.0 °F 34.3 °F 37.4 °F 87% 29.91 in 7.0 mi SSW 11.5 mph - 0.04 in Rain Light Rain
9:53 PM 41.0 °F 34.3 °F 37.0 °F 86% 29.91 in 7.0 mi SSW 11.5 mph - 0.06 in Rain Light Rain
10:05 PM 41.0 °F 32.5 °F 35.6 °F 81% 29.91 in 10.0 mi SSW 17.3 mph 20.7 mph 0.00 in Rain Light Rain
10:53 PM 41.0 °F 34.7 °F 35.1 °F 79% 29.91 in 9.0 mi South 10.4 mph 18.4 mph 0.00 in Rain Light Rain
11:53 PM 39.0 °F 35.7 °F 36.0 °F 89% 29.90 in 10.0 mi ENE 4.6 mph - 0.01 in   Overcast